Content
SEND FEEDBACK

Daily
Averages
Monthly
Summary
United States of America

MANISTIQUE, MICHIGAN


Home > North America > United States > Michigan
Elevation: 610 feet     Latitude: 45 58N     Longitude: 086 15W

WEATHER
 
SELECT A DAY
Number of Records: 409,469;   Date Range: 5/11/98 - 7/22/14
 
SHARE

PRINT THIS DATA

[ ← Previous Day ]
WEATHER ALMANAC - APRIL 27, 2014
[ Next Day → ]
[ °C ]   °F
Weather ElementAverageHighLow
Temperature38.5 °F49.3 °F (4:54 pm)26.2 °F (2:54 am)
Dewpoint24.3 °F25.7 °F (12:55 am)22.1 °F (5:34 pm)
Humidity59.8 %92 % (2:54 am)35 % (4:54 pm)
Barometer30.20 in30.25 in (10:35 am)30.14 in (6:55 pm)
Wind Speed9.6 mph21.9 mph (4:54 pm)
Wind Gust28.8 mph (4:54 pm)
Weather ElementAverage
Visibility10 mi
Wind DirectionESE (119.9 °)

Weather ElementTotal
Precipitation---
Heating Degree Days27.3 (Base 65)
Averaged from 70 records on April 27, 2014
WEATHER CONDITIONS BREAKOUT
WIND DIRECTION BREAKOUT
WEATHER BY HOUR - APRIL 27, 2014
[ °C ]   °F
Local TimeTemperatureDewpointHumidityBarometerVisibilityWind DirectionWind SpeedGust SpeedPrecipitationEventsConditions
12:34 AM27.9 °F25.2 °F90 %30.17 in10.0 miNNW (340°)6.9 mphClear
12:55 AM28.8 °F25.7 °F88 %30.17 in10.0 miNorth (360°)6.9 mphClear
1:14 AM28.4 °F25.5 °F89 %30.18 in10.0 miNorth (350°)8.1 mphClear
1:35 AM28.4 °F25.3 °F88 %30.19 in10.0 miWest (280°)5.8 mphClear
1:54 AM28.0 °F24.8 °F88 %30.19 in10.0 miNorth (350°)4.6 mphClear
2:14 AM28.4 °F25.7 °F90 %30.20 in10.0 miNNW (340°)4.6 mphClear
2:35 AM28.2 °F25.5 °F90 %30.20 in10.0 miNNW (330°)3.5 mphClear
2:54 AM26.2 °F24.1 °F92 %30.20 in10.0 miWNW (290°)5.8 mphClear
3:15 AM27.3 °F25.2 °F92 %30.19 in10.0 miNorth (10°)3.5 mphClear
3:35 AM27.5 °F25.3 °F92 %30.19 in10.0 miNorth (10°)3.5 mphClear
3:54 AM27.5 °F25.5 °F92 %30.20 in10.0 miWest (280°)5.8 mphClear
4:15 AM27.5 °F25.3 °F92 %30.20 in10.0 miNNE (20°)3.5 mphClear
4:35 AM28.0 °F24.3 °F86 %30.20 in10.0 miNorthClear
4:54 AM27.5 °F23.9 °F86 %30.20 in10.0 miNorthClear
5:15 AM28.4 °F23.9 °F83 %30.20 in10.0 miNorthClear
5:34 AM28.4 °F23.9 °F83 %30.20 in10.0 miENE (70°)4.6 mphClear
5:54 AM28.8 °F23.9 °F82 %30.20 in10.0 miEast (90°)4.6 mphClear
6:15 AM29.5 °F23.9 °F80 %30.19 in10.0 miEast (80°)6.9 mphClear
6:34 AM30.0 °F23.7 °F77 %30.20 in10.0 miEast (80°)5.8 mphClear
6:55 AM29.3 °F23.7 °F80 %30.20 in10.0 miEast (80°)4.6 mphClear
7:15 AM30.0 °F24.3 °F79 %30.21 in10.0 miEast (80°)4.6 mphClear
7:34 AM32.0 °F24.8 °F75 %30.23 in10.0 miEast (100°)5.8 mphClear
7:55 AM33.3 °F25.3 °F73 %30.23 in10.0 miEast (90°)5.8 mphClear
8:15 AM34.9 °F25.2 °F68 %30.23 in10.0 miEast (90°)5.8 mphScattered Clouds
8:34 AM36.7 °F25.7 °F64 %30.23 in10.0 miESE (110°)8.1 mphClear
8:55 AM37.6 °F25.3 °F61 %30.23 in10.0 miESE (120°)11.5 mph20.7 mphClear
9:14 AM38.3 °F25.2 °F59 %30.24 in10.0 miESE (120°)9.2 mph21.9 mphClear
9:34 AM39.0 °F25.2 °F58 %30.23 in10.0 miESE (120°)10.4 mph18.4 mphClear
9:55 AM39.2 °F24.4 °F56 %30.23 in10.0 miESE (120°)8.1 mph20.7 mphClear
10:14 AM40.8 °F23.9 °F51 %30.24 in10.0 miESE (110°)8.1 mph19.6 mphClear
10:35 AM41.0 °F24.3 °F51 %30.25 in10.0 miESE (120°)9.2 mphClear
10:55 AM42.3 °F25.0 °F50 %30.24 in10.0 miESE (120°)10.4 mphClear
11:14 AM42.6 °F24.3 °F48 %30.23 in10.0 miSE (130°)9.2 mph18.4 mphClear
11:35 AM43.0 °F24.3 °F48 %30.23 in10.0 miSE (130°)11.5 mph17.3 mphClear
11:55 AM42.6 °F24.3 °F48 %30.23 in10.0 miSE (130°)11.5 mph19.6 mphClear
12:14 PM43.0 °F24.1 °F47 %30.23 in10.0 miESE (120°)13.8 mph23.0 mphClear
12:35 PM43.9 °F23.9 °F45 %30.21 in10.0 miESE (110°)15.0 mph23.0 mphClear
12:55 PM44.2 °F23.9 °F45 %30.21 in10.0 miSE (130°)15.0 mph23.0 mphClear
1:14 PM43.3 °F24.3 °F47 %30.22 in10.0 miESE (120°)16.1 mph24.2 mphClear
1:35 PM43.7 °F24.6 °F47 %30.21 in10.0 miSE (140°)12.7 mph27.6 mphClear
1:54 PM45.3 °F25.0 °F45 %30.20 in10.0 miESE (120°)12.7 mph23.0 mphClear
2:15 PM45.5 °F24.3 °F43 %30.20 in10.0 miESE (120°)13.8 mph21.9 mphClear
2:35 PM44.8 °F24.4 °F45 %30.20 in10.0 miESE (120°)15.0 mph24.2 mphClear
2:54 PM46.4 °F24.6 °F42 %30.19 in10.0 miESE (120°)12.7 mph21.9 mphClear
3:15 PM47.5 °F24.4 °F41 %30.19 in10.0 miESE (120°)12.7 mph19.6 mphClear
3:35 PM48.7 °F25.2 °F40 %30.18 in10.0 miEast (100°)16.1 mph19.6 mphClear
4:15 PM48.4 °F23.4 °F37 %30.16 in10.0 miESE (110°)16.1 mph23.0 mphClear
4:35 PM48.6 °F23.5 °F37 %30.16 in10.0 miEast (100°)15.0 mph21.9 mphClear
4:54 PM49.3 °F22.5 °F35 %30.15 in10.0 miEast (80°)21.9 mph28.8 mphClear
5:15 PM47.7 °F22.3 °F37 %30.16 in10.0 miEast (90°)16.1 mph26.5 mphClear
5:34 PM47.3 °F22.1 °F37 %30.16 in10.0 miEast (80°)15.0 mph24.2 mphClear
5:55 PM46.4 °F23.4 °F40 %30.16 in10.0 miEast (90°)15.0 mph28.8 mphClear
6:15 PM46.0 °F23.7 °F42 %30.16 in10.0 miEast (90°)15.0 mph20.7 mphClear
6:34 PM45.5 °F23.7 °F42 %30.15 in10.0 miEast (90°)11.5 mph21.9 mphClear
6:55 PM45.5 °F24.1 °F43 %30.14 in10.0 miNorthClear
7:15 PM44.6 °F23.7 °F44 %30.15 in10.0 miEast (100°)12.7 mph19.6 mphClear
7:34 PM44.2 °F23.9 °F45 %30.16 in10.0 miEast (90°)11.5 mph20.7 mphClear
7:55 PM44.2 °F23.7 °F44 %30.16 in10.0 miEast (80°)12.7 mph18.4 mphClear
8:14 PM44.2 °F23.2 °F43 %30.17 in10.0 miEast (100°)10.4 mph18.4 mphClear
8:34 PM43.7 °F23.0 °F44 %30.18 in10.0 miEast (100°)11.5 mph16.1 mphClear
8:55 PM42.8 °F23.4 °F46 %30.19 in10.0 miEast (100°)8.1 mphClear
9:14 PM42.3 °F23.4 °F47 %30.19 in10.0 miEast (100°)6.9 mphClear
9:35 PM42.1 °F23.7 °F48 %30.19 in10.0 miEast (90°)8.1 mphClear
9:54 PM42.8 °F23.9 °F47 %30.19 in10.0 miEast (90°)9.2 mphClear
10:14 PM42.1 °F24.3 °F49 %30.20 in10.0 miEast (80°)4.6 mphClear
10:35 PM41.5 °F24.6 °F51 %30.20 in10.0 miENE (70°)6.9 mphClear
10:54 PM41.2 °F25.0 °F53 %30.19 in10.0 miENE (70°)6.9 mphScattered Clouds
11:15 PM41.2 °F25.2 °F53 %30.18 in10.0 miENE (70°)8.1 mphMostly Cloudy
11:35 PM41.4 °F24.8 °F52 %30.18 in10.0 miENE (70°)6.9 mphOvercast
11:54 PM41.2 °F24.8 °F52 %30.17 in10.0 miEast (80°)9.2 mphOvercast
Hourly data recorded from KISQ, located miles away from Manistique, Michigan







STORIES FROM OUR PARTNERS